Regional Weather Roundup
Issued by NWS

Home | Current Version | Previous Version | Text Only | Print | Product List | Glossary On
Versions: 1 2 3 4 5 6 7 8 9 10 11 12 13 14 15 16 17 18 19 20 21 22 23 24 25 26 27 28 29 30 31 32 33 34 35 36 37 38 39 40 41 42 43 44 45 46 47 48 49 50
000
ASUS43 KDTX 250610
RWRMI
MICHIGAN HOURLY REGIONAL WEATHER ROUNDUP
NATIONAL WEATHER SERVICE DETROIT/PONTIAC MI
100 AM EST SUN JAN 25 2015

NOTE: "FAIR" INDICATES FEW OR NO CLOUDS BELOW 12,000 FEET WITH NO
SIGNIFICANT WEATHER AND/OR OBSTRUCTION TO VISIBILITY.

MIZ047>049-052>055-059>063-066>070-074>076-081>083-250700-
SOUTHEAST LOWER MICHIGAN

CITY           SKY/WX    TMP DP  RH WIND       PRES   REMARKS
ADRIAN         CLOUDY    34  31  88 W3        29.69S
6HR MIN TEMP:  33; 6HR MAX TEMP:  36; 6HR PCP: TRACE;

ALMA           CLOUDY    32  26  78 N9        29.69S WCI  24
ANN ARBOR      CLOUDY    34  33  96 W5        29.68S FOG     WCI  30
BAD AXE        CLOUDY    24  19  79 N12G21    29.69S WCI  13
CARO           CLOUDY    30  23  75 N9        29.68R WCI  21
DETROIT CITY   MOCLDY    36  30  79 W5        29.67S WCI  32
6HR MIN TEMP:  36; 6HR MAX TEMP:  38;

DETROIT        CLOUDY    34  32  92 SW7       29.68S WCI  28
6HR MIN TEMP:  34; 6HR MAX TEMP:  36; 6HR PCP: TRACE;

FLINT          CLOUDY    36  32  85 N7        29.67S FOG     WCI  30
6HR MIN TEMP:  36; 6HR MAX TEMP:  38; 6HR PCP: TRACE;

GROSSE ILE     CLOUDY    36  32  87 W5        29.67S WCI  32
HILLSDALE      CLOUDY    36  34  91 SW3       29.66F
HOWELL         CLOUDY    33  33  97 W6        29.66S FOG     WCI  28

CITY           SKY/WX    TMP DP  RH WIND       PRES   REMARKS
JACKSON        LGT SNOW  34  31  88 W3        29.67R FOG
6HR MIN TEMP:  34; 6HR MAX TEMP:  36; 6HR PCP: TRACE;

LAMBERTVILLE   CLOUDY    36  32  87 CALM      29.69S
LANSING        CLOUDY    33  32  96 W3        29.68R FOG
6HR MIN TEMP:  33; 6HR MAX TEMP:  35; 6HR PCP: TRACE;

LAPEER         CLOUDY    32  26  78 N5        29.67R WCI  27
MASON          CLOUDY    33  32  96 W3        29.67S FOG
MONROE         CLOUDY    34  32  93 SW5       29.67S WCI  30
MT. CLEMENS    CLOUDY    35  32  90 W2        29.65S
6HR MIN TEMP:  34; 6HR MAX TEMP:  37; 6HR PCP: TRACE;

PONTIAC        CLOUDY    34  31  88 W3          N/A
6HR MIN TEMP:  33; 6HR MAX TEMP:  36; 6HR PCP: TRACE;

PORT HOPE        N/A     27  19  72 N12G18    29.68R WCI  17
6HR MIN TEMP:  27; 6HR MAX TEMP:  35;

PORT HURON     CLOUDY    32  32 100 N3        29.67R
TRI CITIES     CLOUDY    33  24  69 NE17      29.70R WCI  22
6HR MIN TEMP:  33; 6HR MAX TEMP:  37; 6HR PCP: TRACE;

TROY           CLOUDY    37  32  84 W6        29.68S WCI  32
SAGINAW HB     CLOUDY    32  25  74 N16       29.70R WCI  21
$$
MIZ043>046-050>051-056>058-064>065-071>073-077>080-250700-
SOUTHWEST LOWER MICHIGAN

CITY           SKY/WX    TMP DP  RH WIND       PRES   REMARKS
BATTLE CREEK   CLOUDY    36  31  82 SW5       29.68S WCI  32
6HR MIN TEMP:  36; 6HR MAX TEMP:  37; 6HR PCP: TRACE;

BENTON HARBOR  CLOUDY    34  33  96 CALM      29.68F
6HR MIN TEMP:  34; 6HR MAX TEMP:  37;

BIG RAPIDS     CLOUDY    29  27  91 N7        29.69S WCI  22
6HR MIN TEMP:  29; 6HR MAX TEMP:  35;

COLDWATER      CLOUDY    34  33  94 SW3       29.67S
6HR MIN TEMP:  34; 6HR MAX TEMP:  35;

FREMONT        CLOUDY    31  30  94 NE7       29.69S WCI  24
HOLLAND        CLOUDY    37  33  85 CALM      29.68S
6HR MIN TEMP:  37; 6HR MAX TEMP:  39;

GRAND RAPIDS   CLOUDY    35  32  88 NW3       29.68S FOG
6HR MIN TEMP:  34; 6HR MAX TEMP:  36; 6HR PCP: TRACE;

IONIA          MIX PCPN  35  34  99 CALM      29.67S
KALAMAZOO      CLOUDY    35  31  85 SW6       29.68S WCI  30
6HR MIN TEMP:  34; 6HR MAX TEMP:  36;

LUDINGTON      CLOUDY    31  23  73 NE9       29.73S WCI  23
6HR MIN TEMP:  31; 6HR MAX TEMP:  38;

MARSHALL       CLOUDY    33  31  90 SW3       29.67S
MOUNT PLEASANT CLOUDY    31  24  74 NW3       29.70R
6HR MIN TEMP:  31; 6HR MAX TEMP:  37;

MUSKEGON       CLOUDY    34  31  88 N8        29.69R WCI  27
6HR MIN TEMP:  34; 6HR MAX TEMP:  37; 6HR PCP: TRACE;

SOUTH HAVEN    CLOUDY    35  33  89 CALM      29.68S FOG
$$
MIZ016>042-250700-
NORTHERN LOWER MICHIGAN

CITY           SKY/WX    TMP DP  RH WIND       PRES   REMARKS
ALPENA         CLEAR     16   8  71 N8        29.74R WCI   5
6HR MIN TEMP:  16; 6HR MAX TEMP:  30; 6HR PCP: TRACE;

BEAVER ISLAND  PTCLDY    14   8  75 CALM      29.82R
6HR MIN TEMP:  14; 6HR MAX TEMP:  22;

BELLAIRE       CLOUDY    19  11  72 CALM      29.79R
6HR MIN TEMP:  18; 6HR MAX TEMP:  31;

CADILLAC       CLOUDY    20  15  79 N5        29.70R WCI  14
CHARLEVOIX     MOCLDY    18  12  79 N6        29.82R WCI   9
6HR MIN TEMP:  18; 6HR MAX TEMP:  27;

FRANKFORT      CLOUDY    24  17  76 NE8       29.77R WCI  14
GAYLORD        CLOUDY    16  11  80 N5        29.71R WCI   9
6HR MIN TEMP:  16; 6HR MAX TEMP:  26;

GRAYLING       PTCLDY    16  10  77 N7        29.73R WCI   6
6HR MIN TEMP:  16; 6HR MAX TEMP:  31;

HARBOR SPRINGS CLEAR     14   8  75 CALM      29.78R
HOUGHTON LAKE  CLOUDY    21  13  71 N5        29.71R WCI  15
6HR MIN TEMP:  20; 6HR MAX TEMP:  31; 6HR PCP:  0.01;

MANISTEE       CLOUDY    25  16  68 NE9       29.76R WCI  15
OSCODA         CLOUDY    23  15  70 N8        29.72R WCI  14
PELLSTON       CLEAR     11   4  73 NW8       29.79R WCI  -1
6HR MIN TEMP:  10; 6HR MAX TEMP:  25;

ROGERS CITY    CLOUDY    18  13  80 NW8       29.77R WCI   7
TRAVERSE CITY  MOCLDY    22  13  68 N9        29.76R WCI  12
6HR MIN TEMP:  21; 6HR MAX TEMP:  31; 6HR PCP: TRACE;

$$
MIZ007>008-015-250700-
EASTERN UPPER MICHIGAN

CITY           SKY/WX    TMP DP  RH WIND       PRES   REMARKS
KINROSS        PTCLDY     3   1  92 N7        29.79R WCI  -9
6HR MIN TEMP:   3; 6HR MAX TEMP:  19;

MACKINAC ISLAN CLEAR     11   5  77 N10       29.79R WCI  -3
6HR MIN TEMP:  11; 6HR MAX TEMP:  22;

NEWBERRY       CLEAR      9   3  78 VRB6      29.79  WCI  -1
S. S. MARIE    PTCLDY     6  -3  66 N9        29.79R WCI  -8
6HR MIN TEMP:   6; 6HR MAX TEMP:  19;

MUNISING         N/A     19  11  70 NE16      29.83R WCI   4
6HR MIN TEMP:  19; 6HR MAX TEMP:  23;

$$
MIZ004>006-011>014-085-250700-
CENTRAL UPPER MICHIGAN

CITY           SKY/WX    TMP DP  RH WIND       PRES   REMARKS
MANISTIQUE     FLURRIES  17  12  81 N6        29.82R WCI   8
ESCANABA       CLOUDY   N/A N/A N/A MISG        N/A
MENOMINEE      CLOUDY    21  10  63 NE12      29.80R WCI   9
6HR MIN TEMP:  21; 6HR MAX TEMP:  28;

SAWYER-GWINN   LGT SNOW  17  13  82 NE12G17   29.79R WCI   5
6HR MIN TEMP:  17; 6HR MAX TEMP:  19;

$$
MIZ001>003-009>011-084-250700-
WESTERN UPPER MICHIGAN

CITY           SKY/WX    TMP DP  RH WIND       PRES   REMARKS
IRON MOUNTAIN  CLOUDY    17  10  74 N6        29.79R WCI   9
6HR MIN TEMP:  17; 6HR MAX TEMP:  24; 6HR PCP: TRACE;

HOUGHTON       CLOUDY    15   8  73 NE7       29.85R WCI   5
6HR MIN TEMP:  15; 6HR MAX TEMP:  16; 6HR PCP: TRACE;

COPPER HARBOR    N/A     17   7  64 E13       29.90R WCI   4
6HR MIN TEMP:  17; 6HR MAX TEMP:  20;

IRONWOOD       CLOUDY    14   7  73 E9        29.81R WCI   2
6HR MIN TEMP:  14; 6HR MAX TEMP:  21;

$$

ABBREVIATIONS USED IN REMARKS
   TC - TEMPERATURE IN CELSIUS
  WCI - WIND CHILL INDEX
   HX - HEAT INDEX
  VSB - VISIBILITY




USA.gov is the U.S. government's official web portal to all federal, state and local government web resources and services.